sat.trackr.live / text

‹ back to catalog

STARLINK-33604

NORAD 63070 · 2025-035U

PAYLOAD ACTIVE UNKNOWN

§ Identity

Operator
Country
US
Launch date
2025-02-21
Launch site
AFETR
Launch vehicle
Mass (kg)
RCS (m²)

Purposes: comms

External: N2YO · Heavens-Above · Gunter

§ Orbital elements

Epoch: 2026-05-24T20:31:11.339904Z

Period
94.27 min
Inclination
43.0002°
Eccentricity
0.0000547
Mean motion
15.27602430 rev/d
Perigee alt
482.6 km
Apogee alt
483.4 km
Semi-major
6,861.1 km
B*
7.4595e-4
RAAN
77.3375°
Arg perigee
274.7946°
Mean anomaly
85.2843°
Rev number
7,136

§ Raw data

STARLINK-336041 63070U 25035U   26144.85499236  .00020335  00000+0  74595-3 0  99992 63070  43.0002  77.3375 0000547 274.7946  85.2843 15.27602430 71361

JSON: /api/v1/satellites/63070 · /tle

For live sub-satellite position, see the globe view (requires WebGL).

§ Visibility from observer

Set your observer location to see the next 7 days of passes ≥ 10°. The values pass through the URL so the page stays shareable.

No JS? Fill the form by hand. The geolocation button needs JavaScript.